TimeHST,TemperatureF,Dew PointF,Humidity,Sea Level PressureIn,VisibilityMPH,Wind Direction,Wind SpeedMPH,Gust SpeedMPH,PrecipitationIn,Events,Conditions,WindDirDegrees,DateUTC
12:54 AM,73.9,69.1,85,30.12,10.0,NE,11.5,-,0.00,,Mostly Cloudy,50,2014-04-18 10:54:00
1:54 AM,73.0,69.1,87,30.11,10.0,ENE,4.6,-,0.00,Rain,Light Rain,60,2014-04-18 11:54:00
2:54 AM,73.9,69.1,85,30.08,10.0,ENE,13.8,-,0.00,,Scattered Clouds,60,2014-04-18 12:54:00
3:54 AM,73.9,69.1,85,30.08,10.0,ENE,11.5,19.6,0.00,,Mostly Cloudy,60,2014-04-18 13:54:00
4:54 AM,73.0,69.1,87,30.09,5.0,East,8.1,-,0.04,Rain,Heavy Rain,80,2014-04-18 14:54:00
5:54 AM,73.0,69.1,87,30.11,10.0,East,9.2,16.1,0.02,Rain,Light Rain,80,2014-04-18 15:54:00
6:54 AM,73.0,69.1,87,30.13,10.0,NE,5.8,-,0.01,,Scattered Clouds,40,2014-04-18 16:54:00
7:54 AM,75.0,69.1,82,30.13,10.0,NE,10.4,-,N/A,,Scattered Clouds,40,2014-04-18 17:54:00
8:54 AM,78.1,66.9,68,30.13,10.0,East,11.5,24.2,N/A,,Scattered Clouds,90,2014-04-18 18:54:00
9:54 AM,81.0,66.0,60,30.12,10.0,ENE,17.3,26.5,N/A,,Scattered Clouds,60,2014-04-18 19:54:00
10:54 AM,82.0,63.0,52,30.12,10.0,NE,21.9,32.2,N/A,,Scattered Clouds,50,2014-04-18 20:54:00
11:54 AM,82.0,64.0,54,30.11,10.0,ENE,16.1,28.8,N/A,,Scattered Clouds,60,2014-04-18 21:54:00
12:54 PM,84.0,64.9,53,30.08,10.0,ENE,21.9,34.5,N/A,,Scattered Clouds,70,2014-04-18 22:54:00
1:54 PM,82.0,64.9,56,30.06,10.0,ENE,17.3,27.6,N/A,,Scattered Clouds,60,2014-04-18 23:54:00
2:54 PM,82.9,66.0,56,30.05,10.0,NE,23.0,31.1,N/A,,Scattered Clouds,50,2014-04-19 00:54:00
3:54 PM,80.1,66.9,64,30.06,10.0,NE,26.5,33.4,N/A,,Scattered Clouds,50,2014-04-19 01:54:00
4:54 PM,78.1,66.0,66,30.06,10.0,ENE,19.6,29.9,N/A,,Scattered Clouds,70,2014-04-19 02:54:00
5:54 PM,77.0,64.9,66,30.07,10.0,ENE,18.4,29.9,N/A,,Scattered Clouds,70,2014-04-19 03:54:00
6:54 PM,75.0,64.9,71,30.09,10.0,ENE,17.3,26.5,N/A,,Scattered Clouds,60,2014-04-19 04:54:00
7:54 PM,73.9,64.9,73,30.10,10.0,ENE,11.5,-,N/A,,Partly Cloudy,60,2014-04-19 05:54:00
8:54 PM,73.9,64.9,73,30.12,10.0,ENE,12.7,24.2,N/A,,Scattered Clouds,70,2014-04-19 06:54:00
9:54 PM,73.9,64.9,73,30.13,10.0,NE,12.7,-,N/A,,Clear,50,2014-04-19 07:54:00
10:54 PM,73.9,64.9,73,30.12,10.0,NE,15.0,-,N/A,,Clear,50,2014-04-19 08:54:00
11:54 PM,73.9,64.9,73,30.11,10.0,NE,17.3,25.3,N/A,,Clear,50,2014-04-19 09:54:00